THA6969 VTSM-VTBS

Flight info

Callsign THA6969
Flight time 0h 54m
Altitude 34000
Route OLBAG1A OLBAG Y17 DONSI M769 LEBIM LEBIM3C
Aircraft A359/H-SDE2E3GHIJ3J4J5LM1ORWXY/LB1D1

Departure

Time 2026-04-16 12:43
Airport Samui International Airport (VTSM)

Arrival

Time 2026-04-16 13:38
Airport Suvarnabhumi Airport (VTBS)
Time Latitude Longitude Altitude Speed Heading
2026-04-16 12:14 9.55304 100.06308 52 ft 0 kts 84°
2026-04-16 12:38 9.55304 100.06301 50 ft 2 kts 84°
2026-04-16 12:38 9.55302 100.06287 59 ft 2 kts 84°
2026-04-16 12:38 9.55301 100.06273 50 ft 2 kts 61°
2026-04-16 12:38 9.55289 100.06270 50 ft 2 kts 335°
2026-04-16 12:39 9.55273 100.06277 50 ft 2 kts 335°
2026-04-16 12:39 9.55257 100.06286 50 ft 3 kts 345°
2026-04-16 12:39 9.55255 100.06287 50 ft 0 kts 357°
2026-04-16 12:40 9.55257 100.06287 50 ft 0 kts 357°
2026-04-16 12:40 9.55275 100.06280 55 ft 6 kts 334°
2026-04-16 12:41 9.55301 100.06229 56 ft 9 kts 292°
2026-04-16 12:41 9.55341 100.06204 52 ft 7 kts 338°
2026-04-16 12:41 9.55388 100.06192 52 ft 7 kts 349°
2026-04-16 12:41 9.55447 100.06182 52 ft 13 kts 350°
2026-04-16 12:42 9.55562 100.06171 52 ft 15 kts
2026-04-16 12:42 9.55657 100.06186 51 ft 13 kts
2026-04-16 12:42 9.55685 100.06159 56 ft 2 kts 251°
2026-04-16 12:42 9.55676 100.06153 54 ft 1 kts 204°
2026-04-16 12:43 9.55623 100.06163 50 ft 28 kts 170°
2026-04-16 12:43 9.55056 100.06223 54 ft 137 kts 174°
2026-04-16 12:43 9.53774 100.06345 206 ft 224 kts 174°
2026-04-16 12:43 9.52097 100.06585 1119 ft 257 kts 162°
2026-04-16 12:44 9.50378 100.07295 2470 ft 265 kts 153°
2026-04-16 12:44 9.48726 100.08080 3645 ft 262 kts 154°
2026-04-16 12:44 9.47078 100.08902 4341 ft 267 kts 146°
2026-04-16 12:44 9.45904 100.10326 5033 ft 265 kts 112°
2026-04-16 12:45 9.45682 100.12057 5586 ft 236 kts 86°
2026-04-16 12:45 9.45862 100.13673 5845 ft 227 kts 83°
2026-04-16 12:45 9.46038 100.15260 6185 ft 230 kts 82°
2026-04-16 12:45 9.46507 100.16819 6724 ft 235 kts 60°
2026-04-16 12:46 9.47589 100.17993 7390 ft 235 kts 32°
2026-04-16 12:46 9.49125 100.18538 8071 ft 237 kts 12°
2026-04-16 12:46 9.50227 100.18728 8513 ft 239 kts 10°
2026-04-16 12:46 9.52424 100.19046 9364 ft 242 kts
2026-04-16 12:47 9.53548 100.19212 9821 ft 243 kts
2026-04-16 12:47 9.55792 100.19407 10574 ft 250 kts
2026-04-16 12:47 9.57594 100.19390 10833 ft 268 kts
2026-04-16 12:47 9.59511 100.19346 11075 ft 286 kts 360°
2026-04-16 12:48 9.60884 100.19313 11250 ft 298 kts
2026-04-16 12:48 9.63726 100.19251 11574 ft 319 kts
2026-04-16 12:48 9.65247 100.19220 11733 ft 329 kts
2026-04-16 12:48 9.67586 100.19173 11972 ft 343 kts
2026-04-16 12:49 9.70009 100.19125 12295 ft 352 kts
2026-04-16 12:49 9.72466 100.19169 12760 ft 355 kts
2026-04-16 12:49 9.74847 100.19769 13236 ft 354 kts 23°
2026-04-16 12:49 9.77101 100.20816 13671 ft 358 kts 27°
2026-04-16 12:50 9.79338 100.21956 14081 ft 361 kts 28°
2026-04-16 12:50 9.81585 100.23108 14521 ft 363 kts 28°
2026-04-16 12:50 9.83852 100.24264 14915 ft 367 kts 27°
2026-04-16 12:50 9.86111 100.25411 15372 ft 368 kts 28°
2026-04-16 12:51 9.88407 100.26574 15799 ft 371 kts 27°
2026-04-16 12:51 9.90728 100.27750 16193 ft 374 kts 27°
2026-04-16 12:51 9.93059 100.28928 16671 ft 375 kts 28°
2026-04-16 12:51 9.95407 100.30116 17083 ft 379 kts 27°
2026-04-16 12:52 9.97772 100.31319 17462 ft 382 kts 28°
2026-04-16 12:52 10.00113 100.32591 17896 ft 383 kts 30°
2026-04-16 12:52 10.02431 100.33923 18236 ft 387 kts 31°
2026-04-16 12:52 10.04770 100.35303 18569 ft 390 kts 31°
2026-04-16 12:53 10.07121 100.36702 18856 ft 394 kts 31°
2026-04-16 12:53 10.09505 100.38095 19175 ft 397 kts 28°
2026-04-16 12:53 10.12046 100.39228 19527 ft 400 kts 19°
2026-04-16 12:53 10.14754 100.39897 19865 ft 403 kts
2026-04-16 12:54 10.17546 100.40201 20199 ft 405 kts
2026-04-16 12:54 10.20373 100.40349 20522 ft 408 kts
2026-04-16 12:54 10.23225 100.40415 20856 ft 411 kts
2026-04-16 12:54 10.26086 100.40448 21215 ft 412 kts
2026-04-16 12:55 10.28964 100.40479 21513 ft 416 kts
2026-04-16 12:55 10.31872 100.40519 21808 ft 418 kts
2026-04-16 12:55 10.34789 100.40571 22150 ft 420 kts
2026-04-16 12:55 10.37715 100.40633 22460 ft 423 kts
2026-04-16 12:56 10.40664 100.40701 22725 ft 426 kts
2026-04-16 12:56 10.43634 100.40773 23125 ft 426 kts
2026-04-16 12:56 10.46603 100.40846 23471 ft 428 kts
2026-04-16 12:56 10.49591 100.40920 23704 ft 431 kts
2026-04-16 12:57 10.52600 100.40993 23953 ft 434 kts
2026-04-16 12:57 10.55624 100.41067 24260 ft 435 kts
2026-04-16 12:57 10.58661 100.41140 24507 ft 438 kts
2026-04-16 12:57 10.61716 100.41214 24737 ft 441 kts
2026-04-16 12:58 10.64787 100.41288 25042 ft 442 kts
2026-04-16 12:58 10.67864 100.41362 25340 ft 444 kts
2026-04-16 12:58 10.70963 100.41437 25546 ft 448 kts
2026-04-16 12:58 10.74045 100.41511 25860 ft 449 kts
2026-04-16 12:59 10.77166 100.41587 26209 ft 449 kts
2026-04-16 12:59 10.80341 100.41664 26521 ft 451 kts
2026-04-16 12:59 10.83445 100.41739 26807 ft 454 kts
2026-04-16 13:00 10.89771 100.41892 27452 ft 457 kts
2026-04-16 13:00 10.92965 100.41969 27728 ft 460 kts
2026-04-16 13:00 10.96159 100.42046 28066 ft 462 kts
2026-04-16 13:00 10.99371 100.42124 28383 ft 464 kts
2026-04-16 13:01 11.02533 100.42200 28695 ft 466 kts
2026-04-16 13:01 11.05786 100.42279 29031 ft 468 kts
2026-04-16 13:01 11.09047 100.42358 29355 ft 471 kts
2026-04-16 13:01 11.12329 100.42437 29673 ft 473 kts
2026-04-16 13:02 11.15638 100.42518 29997 ft 475 kts
2026-04-16 13:02 11.18934 100.42598 30310 ft 477 kts 360°
2026-04-16 13:02 11.22270 100.42679 30632 ft 479 kts 360°
2026-04-16 13:02 11.25609 100.42760 30965 ft 481 kts 360°
2026-04-16 13:03 11.28956 100.42841 31306 ft 482 kts 360°
2026-04-16 13:03 11.32319 100.42923 31655 ft 484 kts 360°
2026-04-16 13:03 11.35694 100.43006 31962 ft 486 kts 360°
2026-04-16 13:03 11.39080 100.43090 32292 ft 488 kts 360°
2026-04-16 13:04 11.42476 100.43173 32602 ft 489 kts 360°
2026-04-16 13:04 11.45887 100.43257 32913 ft 491 kts 360°
2026-04-16 13:04 11.49312 100.43342 33217 ft 493 kts 360°
2026-04-16 13:04 11.52746 100.43427 33513 ft 495 kts 360°
2026-04-16 13:05 11.56200 100.43512 33774 ft 498 kts 360°
2026-04-16 13:05 11.63222 100.43684 33828 ft 509 kts 360°
2026-04-16 13:06 11.70306 100.43860 33825 ft 509 kts 360°
2026-04-16 13:06 11.77389 100.44037 33830 ft 509 kts
2026-04-16 13:07 11.84465 100.44212 33832 ft 509 kts
2026-04-16 13:07 11.91532 100.44389 33829 ft 507 kts 360°
2026-04-16 13:08 11.98593 100.44566 33836 ft 507 kts 360°
2026-04-16 13:08 12.05642 100.44744 33829 ft 507 kts 360°
2026-04-16 13:09 12.12696 100.44921 33827 ft 507 kts 360°
2026-04-16 13:09 12.19704 100.45097 33827 ft 507 kts 360°
2026-04-16 13:10 12.26739 100.45275 33562 ft 504 kts 360°
2026-04-16 13:10 12.30196 100.45363 33350 ft 491 kts 359°
2026-04-16 13:10 12.33604 100.45450 32509 ft 491 kts 359°
2026-04-16 13:10 12.37043 100.45535 31412 ft 498 kts 360°
2026-04-16 13:11 12.40534 100.45622 30384 ft 504 kts 360°
2026-04-16 13:11 12.44038 100.45710 29691 ft 502 kts 360°
2026-04-16 13:11 12.47507 100.45798 29091 ft 494 kts
2026-04-16 13:11 12.50925 100.45885 28422 ft 490 kts
2026-04-16 13:12 12.54316 100.45971 27728 ft 486 kts 360°
2026-04-16 13:12 12.57685 100.46056 27039 ft 482 kts 360°
2026-04-16 13:12 12.61029 100.46140 26361 ft 479 kts
2026-04-16 13:12 12.64342 100.46224 25693 ft 475 kts 360°
2026-04-16 13:13 12.67642 100.46307 25012 ft 473 kts
2026-04-16 13:13 12.70918 100.46389 24347 ft 469 kts
2026-04-16 13:13 12.74170 100.46471 23670 ft 466 kts
2026-04-16 13:13 12.77401 100.46553 22914 ft 463 kts
2026-04-16 13:14 12.80599 100.46634 22194 ft 458 kts
2026-04-16 13:14 12.83728 100.46713 21520 ft 452 kts
2026-04-16 13:14 12.86843 100.46792 20842 ft 446 kts
2026-04-16 13:14 12.89927 100.46870 20155 ft 441 kts
2026-04-16 13:15 12.92976 100.46947 19494 ft 436 kts
2026-04-16 13:15 12.95955 100.47022 19293 ft 419 kts
2026-04-16 13:15 12.98803 100.47094 19187 ft 401 kts
2026-04-16 13:15 13.01530 100.47163 19074 ft 384 kts
2026-04-16 13:16 13.04166 100.47230 18692 ft 377 kts
2026-04-16 13:16 13.06780 100.47354 18244 ft 375 kts
2026-04-16 13:16 13.09264 100.48064 17994 ft 371 kts 26°
2026-04-16 13:16 13.11411 100.49489 17685 ft 366 kts 37°
2026-04-16 13:17 13.13412 100.51112 16971 ft 367 kts 39°
2026-04-16 13:17 13.15386 100.52760 16404 ft 364 kts 39°
2026-04-16 13:17 13.17341 100.54389 15946 ft 360 kts 39°
2026-04-16 13:17 13.19276 100.55994 15549 ft 356 kts 39°
2026-04-16 13:18 13.21195 100.57582 15155 ft 354 kts 39°
2026-04-16 13:18 13.23109 100.59162 14791 ft 354 kts 39°
2026-04-16 13:18 13.25023 100.60741 14412 ft 352 kts 39°
2026-04-16 13:18 13.26919 100.62305 14049 ft 350 kts 39°
2026-04-16 13:19 13.28785 100.63844 13746 ft 348 kts 39°
2026-04-16 13:19 13.30668 100.65397 13454 ft 347 kts 39°
2026-04-16 13:19 13.32543 100.66944 13174 ft 345 kts 39°
2026-04-16 13:19 13.34413 100.68487 12923 ft 345 kts 39°
2026-04-16 13:20 13.36278 100.70026 12652 ft 343 kts 39°
2026-04-16 13:20 13.38132 100.71556 12385 ft 342 kts 39°
2026-04-16 13:20 13.39984 100.73086 12122 ft 341 kts 39°
2026-04-16 13:20 13.41816 100.74598 11937 ft 332 kts 39°
2026-04-16 13:21 13.43578 100.76053 11722 ft 318 kts 39°
2026-04-16 13:21 13.45272 100.77451 11496 ft 307 kts 38°
2026-04-16 13:21 13.47042 100.78604 11219 ft 300 kts 24°
2026-04-16 13:21 13.49020 100.79275 10900 ft 299 kts 16°
2026-04-16 13:22 13.51038 100.79824 10650 ft 300 kts 15°
2026-04-16 13:22 13.53056 100.80361 10426 ft 299 kts 15°
2026-04-16 13:22 13.55044 100.80894 10197 ft 298 kts 15°
2026-04-16 13:22 13.57046 100.81436 9970 ft 297 kts 15°
2026-04-16 13:23 13.59046 100.81980 9733 ft 297 kts 15°
2026-04-16 13:23 13.61034 100.82523 9489 ft 296 kts 15°
2026-04-16 13:23 13.62996 100.83059 9261 ft 295 kts 15°
2026-04-16 13:23 13.64976 100.83601 9030 ft 294 kts 15°
2026-04-16 13:24 13.66953 100.84142 8796 ft 294 kts 15°
2026-04-16 13:24 13.68921 100.84681 8578 ft 293 kts 15°
2026-04-16 13:24 13.70889 100.85220 8338 ft 292 kts 15°
2026-04-16 13:24 13.72845 100.85756 8099 ft 291 kts 15°
2026-04-16 13:25 13.74795 100.86290 7900 ft 290 kts 15°
2026-04-16 13:25 13.76741 100.86824 7663 ft 289 kts 15°
2026-04-16 13:25 13.78645 100.87346 7502 ft 277 kts 15°
2026-04-16 13:25 13.80472 100.87847 7311 ft 267 kts 15°
2026-04-16 13:26 13.82241 100.88332 7092 ft 259 kts 15°
2026-04-16 13:26 13.83953 100.88802 6882 ft 252 kts 15°
2026-04-16 13:26 13.85630 100.89261 6634 ft 251 kts 15°
2026-04-16 13:26 13.87308 100.89721 6428 ft 250 kts 15°
2026-04-16 13:27 13.88995 100.90184 6234 ft 250 kts 15°
2026-04-16 13:27 13.90673 100.90644 6033 ft 250 kts 15°
2026-04-16 13:27 13.92348 100.91104 5833 ft 249 kts 16°
2026-04-16 13:27 13.94024 100.91564 5633 ft 249 kts 15°
2026-04-16 13:28 13.95695 100.92023 5442 ft 248 kts 15°
2026-04-16 13:28 13.97358 100.92480 5259 ft 248 kts 15°
2026-04-16 13:28 13.99024 100.92936 5073 ft 247 kts 15°
2026-04-16 13:28 14.00695 100.93380 4998 ft 251 kts 13°
2026-04-16 13:29 14.02467 100.93437 4982 ft 254 kts 347°
2026-04-16 13:29 14.04004 100.92640 4995 ft 247 kts 317°
2026-04-16 13:29 14.04934 100.91184 4994 ft 245 kts 287°
2026-04-16 13:29 14.05024 100.89460 4992 ft 244 kts 256°
2026-04-16 13:30 14.04259 100.87932 4993 ft 242 kts 226°
2026-04-16 13:30 14.02966 100.86828 4992 ft 242 kts 214°
2026-04-16 13:30 14.01561 100.85861 4990 ft 243 kts 212°
2026-04-16 13:30 14.00130 100.84947 4986 ft 242 kts 206°
2026-04-16 13:31 13.98557 100.84324 4750 ft 242 kts 197°
2026-04-16 13:31 13.96926 100.83818 4246 ft 247 kts 195°
2026-04-16 13:31 13.95278 100.83346 3930 ft 244 kts 194°
2026-04-16 13:31 13.94201 100.83042 3737 ft 241 kts 194°
2026-04-16 13:32 13.92600 100.82588 3450 ft 237 kts 194°
2026-04-16 13:32 13.90497 100.81983 3088 ft 233 kts 194°
2026-04-16 13:32 13.88967 100.81543 2799 ft 231 kts 194°
2026-04-16 13:32 13.87928 100.81243 2647 ft 227 kts 194°
2026-04-16 13:33 13.85999 100.80673 2355 ft 211 kts 194°
2026-04-16 13:33 13.84618 100.80263 2093 ft 202 kts 194°
2026-04-16 13:33 13.83257 100.79859 2006 ft 201 kts 194°
2026-04-16 13:33 13.82383 100.79596 2001 ft 184 kts 194°
2026-04-16 13:34 13.81262 100.79261 2007 ft 153 kts 194°
2026-04-16 13:34 13.80309 100.78964 2021 ft 138 kts 194°
2026-04-16 13:34 13.79399 100.78684 2005 ft 136 kts 190°
2026-04-16 13:34 13.78468 100.78450 1959 ft 139 kts 192°
2026-04-16 13:35 13.77549 100.78235 1747 ft 132 kts 191°
2026-04-16 13:35 13.76678 100.78031 1493 ft 126 kts 193°
2026-04-16 13:35 13.75845 100.77822 1272 ft 119 kts 191°
2026-04-16 13:35 13.75068 100.77631 1093 ft 116 kts 192°
2026-04-16 13:36 13.74254 100.77442 996 ft 121 kts 193°
2026-04-16 13:36 13.73440 100.77225 861 ft 122 kts 194°
2026-04-16 13:36 13.72614 100.77005 722 ft 123 kts 194°
2026-04-16 13:36 13.71788 100.76803 619 ft 122 kts 194°
2026-04-16 13:37 13.70962 100.76587 445 ft 122 kts 195°
2026-04-16 13:37 13.70132 100.76365 266 ft 124 kts 193°
2026-04-16 13:37 13.69247 100.76128 111 ft 131 kts 194°
2026-04-16 13:37 13.68409 100.75917 26 ft 115 kts 198°
2026-04-16 13:38 13.67754 100.75730 21 ft 66 kts 194°
2026-04-16 13:38 13.67492 100.75660 22 ft 30 kts 195°
2026-04-16 13:38 13.67316 100.75608 20 ft 23 kts 199°
2026-04-16 13:38 13.67198 100.75544 23 ft 15 kts 216°
2026-04-16 13:39 13.67137 100.75491 24 ft 8 kts 223°
2026-04-16 13:39 13.67094 100.75424 24 ft 17 kts 262°
2026-04-16 13:39 13.67146 100.75384 20 ft 7 kts
2026-04-16 13:39 13.67204 100.75395 23 ft 26 kts 13°
2026-04-16 13:40 13.67448 100.75460 23 ft 39 kts 15°
2026-04-16 13:40 13.67713 100.75529 20 ft 38 kts 14°
2026-04-16 13:40 13.67918 100.75583 23 ft 25 kts 14°
2026-04-16 13:40 13.68077 100.75626 19 ft 21 kts 15°
2026-04-16 13:41 13.68228 100.75666 22 ft 24 kts 14°
2026-04-16 13:41 13.68307 100.75659 21 ft 8 kts 308°
2026-04-16 13:41 13.68335 100.75570 20 ft 23 kts 285°
2026-04-16 13:41 13.68378 100.75401 21 ft 24 kts 283°
2026-04-16 13:42 13.68421 100.75226 21 ft 27 kts 285°
2026-04-16 13:42 13.68424 100.75104 23 ft 17 kts 232°
2026-04-16 13:42 13.68336 100.75037 22 ft 12 kts 196°
2026-04-16 13:42 13.68287 100.75024 23 ft 6 kts 194°
2026-04-16 13:43 13.68283 100.75023 23 ft 0 kts 194°